カタログに戻る

CZ-6A DEB

運用中SSO
NORAD 56598·DEBRIS·🇨🇳 China

打ち上げ Nov 11, 2022 から Taiyuan Satellite Launch Center

Loading…

次のパス (今後24時間)

TLE

経年Source: Space-Track

元期: Sep 11, 2026, 00:17 UTC

1 56598U 22151ADW 26254.01223014  .00000814  00000-0  37587-3 0  9992
2 56598  98.7719 271.6498 0045826  96.2901 264.3499 14.23163922175660

AllMySatでCZ-6A DEBをリアルタイム追跡

Download on the App Store